QPF
0.00 0.00 0.00 0.00 0.00 0.00 0.00 0.00 0.00 0.00 0.00 0.00 0.00 0.00 0.00 0.00 0.00 0.01 0.01 0.02 0.02 0.02 0.03 0.03 0.03 0.04 0.05 0.06 0.09 0.10 0.07 0.07 0.08 0.10 0.09 0.14 0.14 0.16 0.17 0.12 0.08 0.06 0.05 0.04
0.00 0.00 0.00 0.00 0.00 0.00 0.00 0.00 0.00 0.00 0.00 0.00 0.00 0.00 0.00 0.00 0.01 0.01 0.01 0.03 0.03 0.04 0.05 0.07 0.07 0.06 0.05 0.06 0.09 0.11 0.08 0.08 0.08 0.08 0.10 0.14 0.13 0.15 0.20 0.18 0.13 0.09 0.06 0.05
0.00 0.00 0.00 0.00 0.00 0.00 0.00 0.00 0.00 0.00 0.00 0.00 0.00 0.00 0.00 0.01 0.02 0.03 0.02 0.03 0.04 0.06 0.08 0.10 0.08 0.04 0.04 0.04 0.06 0.07 0.07 0.07 0.08 0.08 0.10 0.13 0.15 0.18 0.26 0.22 0.17 0.13 0.09 0.05
0.00 0.00 0.00 0.00 0.00 0.00 0.00 0.00 0.00 0.00 0.00 0.00 0.00 0.00 0.00 0.01 0.02 0.02 0.03 0.05 0.06 0.06 0.08 0.08 0.04 0.02 0.02 0.01 0.02 0.03 0.05 0.06 0.07 0.07 0.08 0.09 0.09 0.10 0.13 0.15 0.16 0.15 0.13 0.08
0.00 0.00 0.00 0.00 0.00 0.00 0.00 0.00 0.00 0.00 0.00 0.00 0.00 0.00 0.01 0.01 0.02 0.03 0.02 0.04 0.08 0.03 0.06 0.05 0.03 0.03 0.02 0.01 0.01 0.02 0.03 0.04 0.06 0.07 0.07 0.08 0.09 0.11 0.11 0.12 0.14 0.15 0.17 0.14
0.00 0.00 0.00 0.00 0.00 0.00 0.00 0.00 0.00 0.00 0.00 0.00 0.00 0.00 0.01 0.01 0.02 0.03 0.02 0.03 0.04 0.02 0.03 0.03 0.03 0.04 0.04 0.04 0.04 0.04 0.04 0.05 0.06 0.07 0.07 0.07 0.07 0.10 0.11 0.10 0.09 0.12 0.15 0.14
0.00 0.00 0.00 0.00 0.00 0.00 0.00 0.00 0.00 0.00 0.00 0.00 0.00 0.00 0.01 0.02 0.02 0.02 0.02 0.02 0.02 0.02 0.03 0.04 0.05 0.08 0.15 0.15 0.12 0.10 0.08 0.09 0.07 0.06 0.08 0.10 0.10 0.11 0.09 0.08 0.08 0.11 0.13 0.11
0.00 0.00 0.00 0.00 0.00 0.00 0.00 0.00 0.00 0.00 0.00 0.01 0.02 0.01 0.02 0.04 0.05 0.04 0.03 0.03 0.02 0.03 0.05 0.06 0.05 0.08 0.13 0.17 0.21 0.24 0.17 0.13 0.12 0.11 0.11 0.13 0.14 0.14 0.13 0.08 0.07 0.08 0.09 0.11
0.00 0.00 0.00 0.00 0.00 0.00 0.00 0.00 0.00 0.00 0.00 0.00 0.01 0.02 0.06 0.07 0.08 0.07 0.06 0.06 0.06 0.06 0.09 0.07 0.06 0.06 0.08 0.07 0.07 0.11 0.09 0.08 0.07 0.08 0.09 0.11 0.13 0.15 0.15 0.09 0.06 0.05 0.06 0.09
0.00 0.00 0.00 0.00 0.00 0.00 0.00 0.00 0.00 0.00 0.00 0.00 0.02 0.04 0.06 0.06 0.10 0.13 0.12 0.08 0.07 0.08 0.10 0.10 0.07 0.06 0.04 0.04 0.04 0.05 0.06 0.06 0.05 0.05 0.05 0.07 0.10 0.11 0.12 0.09 0.08 0.06 0.06 0.10
0.00 0.00 0.00 0.00 0.00 0.00 0.00 0.00 0.00 0.00 0.00 0.00 0.02 0.03 0.04 0.06 0.09 0.08 0.10 0.11 0.10 0.10 0.11 0.11 0.10 0.09 0.06 0.03 0.04 0.04 0.06 0.05 0.04 0.04 0.04 0.05 0.08 0.10 0.10 0.09 0.09 0.08 0.07 0.09
0.00 0.00 0.00 0.00 0.00 0.00 0.00 0.00 0.00 0.00 0.00 0.00 0.00 0.01 0.02 0.04 0.06 0.11 0.15 0.16 0.18 0.15 0.08 0.06 0.06 0.04 0.04 0.03 0.04 0.04 0.05 0.05 0.05 0.05 0.04 0.05 0.05 0.08 0.08 0.09 0.10 0.10 0.11 0.10
0.00 0.00 0.00 0.00 0.00 0.00 0.00 0.00 0.00 0.00 0.00 0.00 0.00 0.01 0.03 0.05 0.07 0.11 0.14 0.13 0.18 0.13 0.10 0.05 0.06 0.05 0.04 0.03 0.03 0.04 0.08 0.09 0.07 0.05 0.05 0.04 0.04 0.05 0.07 0.08 0.09 0.11 0.14 0.15
0.00 0.00 0.00 0.00 0.00 0.00 0.00 0.00 0.00 0.00 0.00 0.00 0.00 0.01 0.02 0.06 0.08 0.10 0.15 0.17 0.14 0.09 0.08 0.05 0.04 0.04 0.05 0.04 0.04 0.07 0.11 0.11 0.10 0.06 0.05 0.05 0.06 0.06 0.07 0.07 0.09 0.11 0.12 0.12
0.00 0.00 0.00 0.00 0.00 0.00 0.00 0.00 0.00 0.00 0.00 0.00 0.00 0.01 0.03 0.13 0.16 0.14 0.16 0.17 0.12 0.06 0.05 0.04 0.03 0.04 0.05 0.05 0.04 0.04 0.06 0.04 0.03 0.03 0.04 0.04 0.03 0.04 0.05 0.06 0.08 0.11 0.11 0.10
0.00 0.00 0.00 0.00 0.00 0.00 0.00 0.00 0.00 0.00 0.00 0.00 0.00 0.01 0.03 0.10 0.12 0.15 0.15 0.14 0.10 0.06 0.04 0.03 0.04 0.04 0.03 0.03 0.03 0.03 0.03 0.02 0.02 0.01 0.02 0.03 0.03 0.04 0.05 0.07 0.07 0.08 0.11 0.12
0.00 0.00 0.00 0.00 0.00 0.00 0.00 0.00 0.00 0.00 0.00 0.00 0.00 0.01 0.02 0.04 0.05 0.13 0.11 0.07 0.06 0.05 0.04 0.05 0.05 0.05 0.03 0.03 0.02 0.02 0.02 0.02 0.01 0.02 0.02 0.03 0.03 0.03 0.05 0.06 0.05 0.05 0.06 0.08
0.00 0.00 0.00 0.00 0.00 0.00 0.00 0.00 0.00 0.00 0.00 0.00 0.01 0.01 0.01 0.04 0.06 0.10 0.07 0.05 0.06 0.05 0.06 0.06 0.07 0.09 0.05 0.03 0.02 0.01 0.01 0.01 0.01 0.02 0.02 0.03 0.03 0.05 0.07 0.06 0.05 0.05 0.04 0.05
0.00 0.00 0.00 0.00 0.00 0.00 0.00 0.00 0.00 0.00 0.01 0.01 0.01 0.01 0.01 0.04 0.04 0.08 0.06 0.05 0.05 0.05 0.05 0.07 0.06 0.06 0.05 0.04 0.03 0.02 0.01 0.02 0.02 0.03 0.03 0.03 0.04 0.06 0.07 0.06 0.04 0.04 0.04 0.04
0.00 0.00 0.00 0.00 0.00 0.00 0.00 0.00 0.00 0.00 0.03 0.02 0.02 0.02 0.03 0.03 0.05 0.07 0.06 0.09 0.08 0.05 0.04 0.04 0.04 0.05 0.05 0.05 0.04 0.02 0.02 0.02 0.03 0.04 0.05 0.05 0.05 0.05 0.04 0.03 0.03 0.03 0.04 0.05
0.00 0.00 0.00 0.00 0.00 0.00 0.00 0.00 0.00 0.02 0.05 0.06 0.05 0.06 0.09 0.10 0.08 0.09 0.09 0.10 0.08 0.05 0.04 0.04 0.04 0.04 0.04 0.04 0.05 0.05 0.04 0.03 0.04 0.03 0.03 0.05 0.05 0.07 0.07 0.06 0.05 0.04 0.04 0.05
0.00 0.00 0.00 0.00 0.00 0.01 0.01 0.00 0.01 0.02 0.06 0.14 0.10 0.12 0.17 0.16 0.18 0.15 0.15 0.12 0.07 0.05 0.05 0.07 0.05 0.03 0.03 0.03 0.04 0.06 0.06 0.05 0.04 0.03 0.03 0.03 0.03 0.04 0.05 0.05 0.05 0.05 0.05 0.05
0.01 0.01 0.01 0.01 0.02 0.02 0.01 0.02 0.03 0.04 0.11 0.21 0.16 0.13 0.15 0.14 0.13 0.12 0.09 0.07 0.05 0.04 0.04 0.04 0.04 0.03 0.03 0.03 0.03 0.04 0.05 0.07 0.05 0.04 0.04 0.03 0.03 0.03 0.04 0.04 0.06 0.07 0.07 0.07
0.03 0.02 0.02 0.04 0.06 0.05 0.03 0.04 0.05 0.06 0.13 0.16 0.13 0.12 0.11 0.08 0.05 0.04 0.03 0.03 0.03 0.03 0.03 0.02 0.02 0.02 0.02 0.02 0.02 0.03 0.05 0.09 0.10 0.08 0.06 0.05 0.04 0.04 0.04 0.04 0.05 0.06 0.05 0.05
0.05 0.07 0.07 0.10 0.10 0.08 0.06 0.05 0.05 0.07 0.09 0.14 0.15 0.12 0.07 0.05 0.04 0.03 0.02 0.01 0.01 0.01 0.01 0.01 0.01 0.01 0.01 0.01 0.02 0.03 0.05 0.08 0.13 0.14 0.11 0.08 0.07 0.06 0.06 0.05 0.05 0.06 0.05 0.06
0.07 0.12 0.14 0.15 0.12 0.09 0.09 0.07 0.05 0.06 0.08 0.10 0.09 0.08 0.05 0.04 0.04 0.04 0.02 0.01 0.01 0.01 0.01 0.01 0.01 0.01 0.01 0.01 0.02 0.03 0.05 0.08 0.11 0.11 0.10 0.09 0.08 0.07 0.06 0.06 0.06 0.08 0.08 0.09
MSLP
1011.76 1012.53 1013.06 1013.34 1013.40 1013.26 1012.97 1012.60 1012.17 1011.73 1011.28 1010.84 1010.41 1010.03 1009.69 1009.43 1009.27 1009.21 1009.26 1009.39 1009.60 1009.85 1010.11 1010.37 1010.61 1010.85 1011.09 1011.36 1011.68 1012.06 1012.49 1012.97 1013.47 1013.94 1014.37 1014.73 1015.00 1015.20 1015.34 1015.45 1015.57 1015.72 1015.93 1016.20
1012.24 1012.77 1013.06 1013.14 1013.07 1012.89 1012.69 1012.48 1012.28 1012.08 1011.85 1011.57 1011.22 1010.82 1010.39 1009.98 1009.65 1009.43 1009.37 1009.45 1009.66 1009.95 1010.28 1010.60 1010.89 1011.13 1011.34 1011.56 1011.81 1012.13 1012.53 1013.01 1013.54 1014.07 1014.57 1014.98 1015.28 1015.47 1015.56 1015.60 1015.62 1015.69 1015.82 1016.05
1012.45 1012.73 1012.78 1012.68 1012.51 1012.37 1012.30 1012.32 1012.42 1012.51 1012.54 1012.45 1012.19 1011.77 1011.23 1010.65 1010.12 1009.73 1009.52 1009.51 1009.70 1010.02 1010.40 1010.78 1011.11 1011.37 1011.57 1011.74 1011.92 1012.18 1012.54 1013.01 1013.55 1014.13 1014.68 1015.15 1015.49 1015.69 1015.76 1015.75 1015.71 1015.70 1015.77 1015.95
1012.43 1012.46 1012.30 1012.06 1011.86 1011.81 1011.94 1012.25 1012.67 1013.09 1013.40 1013.49 1013.31 1012.87 1012.21 1011.45 1010.70 1010.09 1009.71 1009.59 1009.71 1010.03 1010.45 1010.89 1011.26 1011.54 1011.72 1011.86 1011.99 1012.18 1012.49 1012.93 1013.47 1014.07 1014.66 1015.17 1015.55 1015.78 1015.86 1015.84 1015.77 1015.72 1015.74 1015.89
1012.23 1012.05 1011.73 1011.42 1011.26 1011.35 1011.72 1012.34 1013.10 1013.84 1014.41 1014.67 1014.56 1014.08 1013.29 1012.33 1011.35 1010.52 1009.95 1009.68 1009.73 1010.02 1010.45 1010.93 1011.34 1011.64 1011.82 1011.92 1012.00 1012.14 1012.38 1012.76 1013.28 1013.87 1014.48 1015.03 1015.47 1015.74 1015.85 1015.84 1015.78 1015.71 1015.72 1015.84
1011.94 1011.60 1011.18 1010.87 1010.79 1011.06 1011.69 1012.61 1013.67 1014.70 1015.48 1015.89 1015.82 1015.28 1014.36 1013.21 1012.02 1010.98 1010.22 1009.81 1009.77 1010.02 1010.45 1010.95 1011.39 1011.71 1011.90 1011.97 1012.00 1012.07 1012.24 1012.56 1013.02 1013.59 1014.19 1014.77 1015.24 1015.56 1015.72 1015.76 1015.73 1015.68 1015.68 1015.78
1011.60 1011.16 1010.72 1010.45 1010.50 1010.96 1011.82 1012.99 1014.30 1015.54 1016.48 1016.98 1016.93 1016.34 1015.31 1014.00 1012.64 1011.42 1010.51 1009.99 1009.86 1010.07 1010.50 1011.01 1011.47 1011.81 1011.99 1012.05 1012.03 1012.03 1012.12 1012.36 1012.75 1013.27 1013.85 1014.42 1014.92 1015.29 1015.51 1015.60 1015.62 1015.60 1015.62 1015.71
1011.23 1010.77 1010.36 1010.18 1010.36 1010.98 1012.02 1013.37 1014.84 1016.19 1017.23 1017.76 1017.71 1017.09 1015.99 1014.60 1013.14 1011.83 1010.83 1010.23 1010.05 1010.23 1010.64 1011.15 1011.62 1011.97 1012.15 1012.18 1012.12 1012.06 1012.08 1012.23 1012.54 1012.98 1013.52 1014.07 1014.58 1014.98 1015.25 1015.40 1015.46 1015.48 1015.51 1015.60
1010.83 1010.40 1010.07 1009.99 1010.30 1011.04 1012.18 1013.61 1015.13 1016.51 1017.55 1018.09 1018.03 1017.40 1016.31 1014.92 1013.47 1012.16 1011.15 1010.54 1010.35 1010.51 1010.91 1011.41 1011.87 1012.21 1012.37 1012.38 1012.29 1012.17 1012.12 1012.19 1012.41 1012.78 1013.25 1013.76 1014.25 1014.66 1014.97 1015.16 1015.26 1015.32 1015.36 1015.44
1010.39 1010.04 1009.81 1009.84 1010.24 1011.04 1012.19 1013.59 1015.06 1016.38 1017.37 1017.87 1017.82 1017.24 1016.22 1014.94 1013.60 1012.39 1011.47 1010.92 1010.76 1010.92 1011.30 1011.77 1012.20 1012.51 1012.65 1012.63 1012.51 1012.35 1012.24 1012.24 1012.39 1012.67 1013.07 1013.53 1013.98 1014.38 1014.69 1014.91 1015.04 1015.11 1015.16 1015.22
1009.90 1009.67 1009.56 1009.70 1010.14 1010.93 1012.01 1013.29 1014.60 1015.78 1016.66 1017.11 1017.08 1016.60 1015.74 1014.66 1013.54 1012.54 1011.78 1011.34 1011.23 1011.40 1011.75 1012.17 1012.54 1012.80 1012.91 1012.86 1012.72 1012.54 1012.40 1012.35 1012.43 1012.65 1012.98 1013.37 1013.77 1014.14 1014.43 1014.65 1014.78 1014.86 1014.91 1014.96
1009.39 1009.30 1009.33 1009.54 1010.00 1010.71 1011.65 1012.73 1013.83 1014.80 1015.53 1015.93 1015.94 1015.60 1014.97 1014.16 1013.32 1012.59 1012.05 1011.76 1011.72 1011.89 1012.20 1012.54 1012.84 1013.03 1013.08 1013.01 1012.86 1012.67 1012.53 1012.46 1012.51 1012.67 1012.93 1013.26 1013.60 1013.92 1014.19 1014.39 1014.52 1014.61 1014.65 1014.69
1008.91 1008.99 1009.14 1009.42 1009.85 1010.45 1011.19 1012.02 1012.85 1013.59 1014.16 1014.49 1014.56 1014.38 1014.00 1013.50 1012.99 1012.55 1012.25 1012.12 1012.15 1012.32 1012.56 1012.81 1013.01 1013.11 1013.11 1013.03 1012.88 1012.71 1012.59 1012.53 1012.57 1012.70 1012.91 1013.17 1013.46 1013.73 1013.96 1014.15 1014.28 1014.36 1014.42 1014.46
1008.54 1008.77 1009.04 1009.37 1009.75 1010.21 1010.73 1011.29 1011.83 1012.32 1012.72 1012.98 1013.10 1013.08 1012.95 1012.77 1012.58 1012.43 1012.36 1012.37 1012.47 1012.61 1012.78 1012.92 1013.01 1013.04 1012.99 1012.90 1012.77 1012.65 1012.57 1012.55 1012.60 1012.72 1012.90 1013.12 1013.35 1013.57 1013.77 1013.94 1014.08 1014.18 1014.27 1014.33
1008.32 1008.70 1009.07 1009.42 1009.75 1010.06 1010.35 1010.63 1010.90 1011.15 1011.36 1011.55 1011.71 1011.83 1011.93 1012.03 1012.12 1012.23 1012.36 1012.49 1012.62 1012.74 1012.83 1012.88 1012.87 1012.83 1012.75 1012.67 1012.59 1012.53 1012.51 1012.55 1012.63 1012.76 1012.92 1013.10 1013.29 1013.47 1013.65 1013.82 1013.97 1014.11 1014.24 1014.35
1008.30 1008.79 1009.22 1009.58 1009.84 1010.00 1010.08 1010.11 1010.12 1010.15 1010.20 1010.31 1010.48 1010.71 1010.99 1011.31 1011.64 1011.96 1012.24 1012.47 1012.63 1012.73 1012.75 1012.72 1012.65 1012.56 1012.48 1012.42 1012.40 1012.42 1012.48 1012.58 1012.70 1012.84 1012.99 1013.15 1013.30 1013.46 1013.63 1013.81 1013.99 1014.18 1014.36 1014.54
1008.46 1009.01 1009.47 1009.81 1009.98 1010.01 1009.91 1009.73 1009.52 1009.35 1009.26 1009.30 1009.47 1009.77 1010.18 1010.66 1011.16 1011.63 1012.03 1012.34 1012.53 1012.62 1012.61 1012.54 1012.44 1012.35 1012.29 1012.28 1012.32 1012.42 1012.55 1012.71 1012.86 1013.01 1013.15 1013.28 1013.41 1013.55 1013.72 1013.91 1014.14 1014.39 1014.65 1014.91
1008.75 1009.30 1009.74 1010.02 1010.12 1010.02 1009.78 1009.43 1009.06 1008.74 1008.54 1008.51 1008.67 1009.01 1009.51 1010.09 1010.71 1011.30 1011.79 1012.17 1012.40 1012.51 1012.51 1012.44 1012.36 1012.29 1012.28 1012.33 1012.44 1012.60 1012.78 1012.97 1013.14 1013.28 1013.40 1013.50 1013.61 1013.74 1013.91 1014.13 1014.41 1014.72 1015.06 1015.40
1009.10 1009.57 1009.94 1010.14 1010.14 1009.94 1009.59 1009.13 1008.66 1008.25 1007.99 1007.92 1008.08 1008.45 1008.99 1009.66 1010.36 1011.02 1011.60 1012.04 1012.33 1012.49 1012.53 1012.51 1012.48 1012.47 1012.51 1012.62 1012.78 1012.98 1013.18 1013.37 1013.52 1013.64 1013.71 1013.78 1013.86 1013.97 1014.16 1014.41 1014.74 1015.13 1015.54 1015.96
1009.42 1009.76 1010.00 1010.09 1009.99 1009.72 1009.29 1008.78 1008.27 1007.84 1007.57 1007.51 1007.69 1008.09 1008.67 1009.39 1010.15 1010.88 1011.53 1012.04 1012.41 1012.63 1012.75 1012.81 1012.85 1012.90 1012.99 1013.14 1013.31 1013.51 1013.69 1013.84 1013.95 1014.01 1014.03 1014.05 1014.10 1014.21 1014.40 1014.69 1015.07 1015.52 1016.01 1016.50
1009.66 1009.81 1009.88 1009.84 1009.66 1009.32 1008.88 1008.38 1007.90 1007.51 1007.29 1007.28 1007.50 1007.95 1008.58 1009.34 1010.15 1010.94 1011.65 1012.23 1012.67 1012.99 1013.19 1013.33 1013.43 1013.53 1013.66 1013.80 1013.96 1014.11 1014.23 1014.31 1014.33 1014.31 1014.27 1014.25 1014.27 1014.37 1014.59 1014.92 1015.35 1015.87 1016.42 1016.98
1009.77 1009.71 1009.61 1009.44 1009.17 1008.82 1008.39 1007.95 1007.56 1007.28 1007.16 1007.25 1007.55 1008.07 1008.76 1009.56 1010.41 1011.24 1011.99 1012.64 1013.15 1013.53 1013.81 1014.01 1014.16 1014.28 1014.40 1014.51 1014.61 1014.68 1014.70 1014.67 1014.60 1014.49 1014.39 1014.32 1014.32 1014.44 1014.68 1015.06 1015.55 1016.13 1016.76 1017.38
1009.76 1009.49 1009.23 1008.94 1008.62 1008.27 1007.91 1007.59 1007.33 1007.20 1007.23 1007.45 1007.86 1008.46 1009.21 1010.05 1010.92 1011.78 1012.56 1013.23 1013.79 1014.22 1014.53 1014.76 1014.92 1015.04 1015.11 1015.16 1015.16 1015.12 1015.02 1014.88 1014.71 1014.52 1014.36 1014.26 1014.27 1014.41 1014.70 1015.13 1015.69 1016.34 1017.03 1017.72
1009.65 1009.22 1008.82 1008.45 1008.10 1007.80 1007.54 1007.36 1007.28 1007.33 1007.53 1007.90 1008.44 1009.12 1009.91 1010.78 1011.66 1012.51 1013.29 1013.96 1014.52 1014.95 1015.27 1015.49 1015.63 1015.70 1015.71 1015.66 1015.55 1015.39 1015.18 1014.93 1014.67 1014.42 1014.23 1014.14 1014.16 1014.35 1014.69 1015.19 1015.82 1016.53 1017.29 1018.04
1009.48 1008.93 1008.45 1008.04 1007.72 1007.49 1007.36 1007.34 1007.45 1007.69 1008.07 1008.58 1009.23 1009.98 1010.81 1011.68 1012.54 1013.35 1014.09 1014.73 1015.25 1015.66 1015.95 1016.13 1016.21 1016.21 1016.14 1015.99 1015.78 1015.52 1015.21 1014.89 1014.57 1014.30 1014.11 1014.03 1014.11 1014.36 1014.77 1015.34 1016.03 1016.80 1017.62 1018.42
1009.27 1008.67 1008.17 1007.78 1007.51 1007.39 1007.40 1007.55 1007.84 1008.25 1008.79 1009.44 1010.17 1010.97 1011.80 1012.63 1013.44 1014.20 1014.87 1015.44 1015.90 1016.25 1016.48 1016.61 1016.64 1016.57 1016.43 1016.20 1015.92 1015.58 1015.22 1014.86 1014.53 1014.27 1014.11 1014.09 1014.23 1014.55 1015.03 1015.66 1016.40 1017.22 1018.07 1018.91
Thickness
5818 5799 5787 5793 5798 5797 5797 5793 5793 5811 5835 5828 5819 5817 5823 5829 5827 5820 5816 5813 5810 5807 5807 5806 5802 5797 5791 5786 5782 5778 5774 5770 5766 5760 5755 5752 5749 5750 5750 5751 5751 5751 5751 5750
5795 5787 5805 5811 5810 5805 5798 5792 5796 5812 5832 5826 5815 5814 5823 5826 5824 5823 5818 5812 5808 5803 5802 5800 5798 5794 5789 5784 5780 5777 5774 5770 5766 5762 5758 5754 5751 5749 5750 5750 5750 5750 5750 5749
5784 5800 5817 5810 5804 5798 5797 5795 5799 5804 5818 5822 5812 5797 5806 5817 5822 5822 5821 5817 5812 5807 5801 5797 5795 5792 5788 5784 5781 5778 5773 5770 5766 5763 5758 5753 5749 5747 5746 5746 5747 5748 5748 5748
5791 5809 5811 5805 5802 5803 5790 5812 5814 5811 5796 5781 5794 5765 5788 5800 5805 5811 5812 5811 5808 5806 5801 5798 5794 5790 5788 5786 5783 5779 5774 5770 5766 5763 5757 5752 5747 5744 5745 5746 5746 5747 5747 5747
5790 5808 5804 5800 5809 5814 5806 5821 5816 5810 5793 5776 5778 5766 5772 5790 5790 5798 5805 5806 5806 5805 5801 5797 5795 5792 5790 5787 5783 5779 5774 5770 5766 5762 5758 5753 5749 5747 5746 5745 5744 5744 5744 5745
5798 5815 5814 5813 5823 5824 5822 5813 5800 5785 5769 5751 5765 5762 5759 5774 5784 5794 5801 5804 5804 5804 5800 5796 5794 5791 5788 5786 5782 5777 5773 5768 5766 5762 5758 5754 5750 5747 5744 5743 5741 5741 5741 5742
5782 5800 5816 5823 5809 5815 5811 5775 5747 5744 5733 5740 5765 5761 5760 5787 5799 5799 5799 5802 5804 5802 5798 5793 5790 5787 5784 5781 5778 5775 5771 5767 5764 5761 5758 5755 5751 5748 5745 5743 5741 5740 5739 5738
5759 5768 5803 5816 5808 5796 5796 5775 5742 5730 5727 5737 5757 5755 5768 5797 5804 5804 5802 5802 5801 5797 5794 5790 5787 5785 5782 5780 5777 5774 5769 5766 5763 5760 5757 5755 5752 5749 5746 5745 5743 5741 5739 5739
5757 5766 5808 5821 5824 5810 5792 5779 5776 5749 5742 5733 5740 5758 5775 5790 5792 5794 5793 5794 5793 5792 5789 5787 5785 5783 5780 5777 5775 5772 5769 5765 5762 5759 5756 5754 5752 5749 5746 5745 5743 5741 5740 5739
5773 5765 5793 5815 5821 5817 5808 5794 5762 5745 5728 5721 5735 5746 5751 5771 5776 5782 5784 5786 5787 5787 5785 5783 5781 5780 5779 5776 5774 5771 5768 5764 5761 5759 5755 5753 5751 5749 5747 5744 5741 5740 5739 5738
5779 5762 5774 5791 5794 5792 5796 5789 5769 5747 5740 5724 5720 5738 5778 5778 5781 5781 5783 5785 5785 5783 5782 5780 5778 5778 5777 5774 5771 5767 5764 5761 5758 5756 5754 5752 5750 5748 5746 5743 5741 5739 5737 5736
5781 5762 5753 5773 5801 5813 5802 5790 5770 5749 5743 5736 5727 5741 5788 5786 5786 5784 5783 5784 5783 5783 5782 5780 5777 5774 5771 5769 5767 5764 5761 5758 5755 5754 5752 5749 5747 5745 5743 5740 5739 5737 5735 5734
5782 5756 5740 5749 5769 5793 5794 5793 5782 5766 5749 5735 5728 5745 5779 5782 5780 5781 5781 5781 5779 5778 5777 5775 5773 5769 5766 5764 5763 5761 5758 5755 5753 5750 5747 5745 5743 5741 5738 5736 5736 5734 5732 5730
5794 5758 5748 5743 5754 5778 5783 5790 5787 5765 5744 5741 5746 5753 5765 5770 5772 5774 5776 5776 5774 5772 5771 5770 5767 5764 5762 5761 5759 5757 5755 5753 5751 5747 5743 5740 5739 5737 5735 5733 5732 5730 5728 5727
5782 5759 5764 5769 5781 5788 5787 5787 5787 5776 5767 5756 5760 5761 5768 5774 5777 5777 5775 5774 5770 5767 5766 5766 5763 5760 5758 5756 5755 5753 5751 5749 5747 5743 5740 5737 5736 5733 5731 5729 5727 5725 5724 5722
5766 5759 5762 5765 5780 5782 5780 5786 5787 5784 5781 5773 5768 5765 5779 5780 5778 5775 5774 5773 5768 5764 5764 5763 5760 5757 5755 5753 5751 5749 5746 5744 5742 5738 5735 5733 5731 5728 5725 5723 5721 5719 5716 5715
5750 5749 5741 5740 5763 5766 5755 5775 5780 5780 5785 5778 5765 5771 5776 5771 5772 5772 5773 5772 5769 5766 5763 5760 5757 5754 5752 5751 5749 5745 5743 5740 5737 5733 5731 5728 5725 5722 5719 5717 5714 5711 5709 5707
5744 5736 5727 5729 5742 5728 5752 5785 5787 5782 5782 5786 5785 5782 5781 5777 5774 5773 5773 5770 5767 5765 5761 5756 5753 5750 5748 5747 5745 5743 5739 5735 5731 5728 5725 5723 5720 5716 5713 5710 5707 5704 5701 5698
5745 5734 5720 5713 5715 5728 5756 5778 5782 5772 5765 5779 5779 5777 5774 5773 5768 5763 5770 5771 5769 5765 5760 5754 5751 5748 5744 5742 5740 5737 5732 5728 5725 5722 5719 5717 5715 5711 5707 5703 5699 5697 5694 5690
5737 5730 5717 5709 5710 5710 5742 5775 5787 5773 5747 5771 5775 5771 5768 5766 5748 5750 5764 5767 5764 5761 5756 5751 5747 5742 5738 5736 5734 5729 5724 5720 5717 5715 5713 5711 5709 5705 5701 5696 5692 5690 5687 5682
5712 5711 5706 5703 5703 5717 5752 5773 5775 5741 5740 5766 5769 5767 5764 5759 5756 5757 5758 5757 5754 5752 5748 5745 5739 5734 5730 5729 5727 5721 5717 5713 5711 5709 5707 5704 5702 5698 5694 5690 5686 5682 5677 5672
5695 5693 5695 5694 5693 5705 5753 5760 5750 5747 5759 5762 5762 5760 5757 5755 5753 5750 5748 5744 5742 5740 5737 5734 5729 5724 5722 5721 5718 5713 5708 5707 5704 5701 5698 5695 5693 5691 5686 5682 5677 5673 5668 5663
5689 5693 5695 5699 5704 5728 5745 5750 5754 5757 5753 5754 5754 5754 5753 5748 5744 5740 5737 5734 5732 5730 5727 5724 5720 5715 5713 5712 5710 5705 5701 5699 5697 5692 5688 5685 5683 5680 5677 5673 5668 5664 5659 5654
5685 5695 5694 5696 5706 5720 5732 5740 5744 5748 5748 5750 5750 5748 5746 5740 5735 5730 5727 5723 5721 5719 5717 5714 5711 5707 5702 5701 5700 5697 5694 5691 5688 5683 5679 5676 5672 5669 5666 5662 5659 5655 5650 5645
5675 5682 5682 5685 5695 5706 5716 5725 5732 5736 5739 5739 5737 5737 5735 5732 5725 5722 5716 5713 5710 5709 5707 5705 5702 5698 5694 5691 5689 5688 5685 5683 5679 5674 5670 5666 5662 5658 5654 5649 5645 5643 5640 5638
5668 5671 5671 5674 5686 5691 5699 5711 5720 5723 5723 5725 5724 5721 5721 5720 5715 5710 5705 5702 5700 5698 5696 5694 5691 5688 5685 5682 5680 5678 5676 5674 5670 5665 5660 5656 5652 5648 5643 5638 5632 5628 5627 5624